OBJECT F, 44315

Orbit data source: Space-Track

You're viewing an Uncataloged Satellite

Recently launched and/or uncataloged satellites may have evolving metadata. Metadata may include but not limited to: Owner, Maufacturer, Bus, Motor, and Mission.

OBJECT F, 44315 is a satellite owned by Changguang WJ (CN) in LEO that was launched on Wed, 05 Jun 2019 UTC via a CHANG ZHENG 11 launch vehicle from the Yellow Sea Launch Area, China (YSLA). Unknown objects in Earth's orbit typically refer to objects detected orbiting the Earth but have not yet been identified or cataloged. These objects could be anything from previously untracked satellites, spent rocket stages, debris from satellite collisions, or even natural meteoroids temporarily captured by Earth's gravity.

Loading next visibility...
Identifier
44315, 2019-032F
Orbit
LEO
Last TLE update
11 hours ago
Origin
Flag of CNCGSTL (CN / PRC)
Manufacturer
CIOMP
Mission
Commercial Imaging
Bus & Motor
JL-1, Unknown motor
Mass
39 kg wet, 39 kg dry
Launch date (UTC)
2019-06-05 (6 years ago)
Launch vehicle
CHANG ZHENG 11
Launch site
Yellow Sea Launch Area, China (YSLA)
Object type
Unknown
Shape & HBR
Box + 2 Pan, 1.5 m
Radar Cross Section
2.000 m², Medium (>0.1 m² and < 1m²)

Expand to show TLE details & history

TLE from 11 hours ago
0 OBJECT F
1 44315U 19032F   25184.04978725  .00022607  00000-0  56969-3 0  9999
2 44315  44.9855  53.2341 0015265 169.5442 190.5765 15.39442666335125
Epoch: 2025-07-03T01:11Z
TLE epoch observation values (Epoch: 2025-07-03T01:11:41.618Z)
Latitude
-0.00005°
Longitude
113.98854°
Altitude
457.995 km
Speed
7.634 km/s
True Right ascension
03h 32m 56s
True Declination
0° 00' 00"
Sunlit
Object was in daylight at epoch
Visualization orbit readout
Latitude
44.70057°
Longitude
-168.68642°
Altitude
451.29 km
Speed
7.648 km/s
Apparent Right ascension
10h 28m 31s
Apparent Declination
4° 38' 52"
Sunlit
Object is in daylight
Visualization observer readout
Local Sidereal Time
00:13:57
Azimuth
34.862° NE
Elevation
-39.271°
Doppler factor
1
Orbital elements
Apogee altitude
459.798 km
Perigee altitude
438.954 km
Semi-major axis
6,827.513 km
Eccentricity
0.00153
Inclination
44.9855°
RAAN
53.2341°
Arg. of periapsis
169.5442°
True anomaly
Unknown
Mean anomaly
190.5765°
Eccentric anomaly
Unknown
Mean motion
3.84724 °/min
Orbital period
93.57 mins
BSTAR
0.00056969
Loading maneuver chart data...
Loading SW <> Apogee altitude chart data...
Loading historical data...
Loading historical data...
Loading historical data...
Loading historical data...
Loading historical data...
Loading historical data...
Loading historical data...

OBJECT F Visibility forecast

Observer location: undefined°, undefined°

Span
Click to sort rows by Start time (UTC) header in descending order
Start Az.
Max El. time (UTC)
Max El. Az.
Max El.
End time (UTC)
End Az.
6 mins2025-07-03 18:31:17.666Z223.2° SW2025-07-03 18:34:17.666Z168.003° S35.308°2025-07-03 18:37:17.666Z78.826° E
5 mins2025-07-03 20:10:17.666Z277.785° WNW2025-07-03 20:12:17.666Z326.412° NNW35.012°2025-07-03 20:15:17.666Z57.137° ENE
5 mins2025-07-03 21:49:17.666Z311.668° NW2025-07-03 21:51:17.666Z14.64° NNE29.851°2025-07-03 21:54:17.666Z73.014° E
5 mins2025-07-03 23:27:17.666Z296.776° NW2025-07-03 23:29:17.666Z9.711° NNE44.633°2025-07-03 23:32:17.666Z110.182° ESE
|